Regional Weather Roundup
Issued by NWS Kansas City/Pleasant Hill, MO

Home | Current Version | Previous Version | Graphics & Text | Print | Product List | Glossary Off
Versions: 1 2 3 4 5 6 7 8 9 10 11 12 13 14 15 16 17 18 19 20 21 22 23 24 25 26 27

000
ASUS43 KEAX 251010
RWREAX

WEATHER ROUNDUP FOR EASTERN KANSAS AND NORTHWEST MISSOURI
NATIONAL WEATHER SERVICE KANSAS CITY/PLEASANT HILL MO
400 AM CST SUN FEB 25 2018

KSZ040-057-103>105-MOZ028-029-037-043-251100-
...KANSAS CITY METROPOLITAN AREA...

CITY           SKY/WX    TMP DP  RH WIND       PRES   REMARKS
K.C. INTL      CLEAR     27  20  75 W7        29.95S WCI  19
K.C. DOWNTOWN  CLEAR     26  21  81 SW8       29.98R WCI  18
LEES SUMMIT    CLEAR     29  24  82 SW7       29.97R WCI  22
OLATHE - IXD   CLEAR     26  24  92 SW6       29.98S WCI  19
OLATHE - OJC   CLEAR     27  24  89 W6        29.97S WCI  20
LAWRENCE       CLEAR     25  22  88 SW5       29.99R WCI  19

$$

MOZ001>008-011>017-020>025-030>033-038>040-044>046-053-054-251100-
...NORTHERN AND CENTRAL MISSOURI...

CITY           SKY/WX    TMP DP  RH WIND       PRES   REMARKS
ST. JOSEPH     CLEAR     26  22  84 SW7       29.96S WCI  18
MOSBY          SUNNY     30  23  74 CALM      29.96S
WARRENSBURG    CLEAR     30  28  93 SW5       29.99R WCI  25
WHITEMAN AFB   CLEAR    N/A N/A N/A W7        29.95R
CLINTON        CLEAR     32  28  86 W7        30.00R WCI  26
SEDALIA        CLEAR     33  31  92 W9        29.98R WCI  25
WARSAW         NOT AVBL
CHILLICOTHE      N/A     30  23  75 SW5       29.95R WCI  25
KIRKSVILLE     CLEAR     31  26  82 W13       29.89R WCI  21

$$

MOZ041-047>049-056>058-063>065-088>090-097-251100-
...EASTERN AND SOUTHERN MISSOURI...

CITY           SKY/WX    TMP DP  RH WIND       PRES   REMARKS
ST. LOUIS INTL CLEAR     36  31  82 W13       29.95R WCI  27
SPIRIT OF STL  CLEAR     36  31  82 W12       29.96R WCI  28
COLUMBIA       CLEAR     33  29  85 W13       29.94S WCI  24
JEFFERSON CITY CLEAR     34  29  82 W3        29.98R
ROLLA          CLEAR     31  30  96 SW8       29.96S WCI  23
OSAGE BEACH    CLEAR     32  30  92 SW3       29.98F
SPRINGFIELD    CLEAR     36  31  82 W7        29.98S WCI  30
JOPLIN         CLEAR     32  30  92 SW3       30.01S
WEST PLAINS    CLEAR     33  30  88 W3        30.00F

$$

IAZ060-094-KSZ022-034>040-054-083-096-NEZ052-066-093-251100-
...KANSAS...SOUTHEAST NEBRASKA AND IOWA...

CITY           SKY/WX    TMP DP  RH WIND       PRES   REMARKS
TOPEKA         CLEAR     29  23  78 W3        29.99R
MANHATTAN      CLEAR     22  17  81 CALM      29.99S
EMPORIA        CLEAR     26  19  74 CALM      29.98F
CHANUTE        CLEAR     29  24  82 NW3       30.01R
WICHITA        CLEAR     27  21  78 CALM      29.98S
OMAHA          CLEAR     23  15  71 SW3       29.87S
LINCOLN        CLEAR     21  15  78 SW3       29.91R
FALLS CITY     CLEAR     25  19  78 SW5       29.93S WCI  19
LAMONI         CLEAR     27  20  75 W9        29.87R WCI  18
DES MOINES     CLEAR     25  20  81 SW14      29.84R WCI  13

$$





USA.gov is the U.S. government's official web portal to all federal, state and local government web resources and services.